Harlingen, TX

12:18 PM CDT on July 22, 2017 (GMT -0500)
Valley International

Weather History for KHRL - December, 2012

Change the Weather History Date:

Friday, December 14, 2012

  Actual Average Record
Temperature  
Mean Temperature 74 °F 61 °F  
Max Temperature 79 °F 71 °F 87 °F (1921)
Min Temperature 68 °F 50 °F 26 °F (1932)
Degree Days  
Heating Degree Days 0 6  
Month to date heating degree days 29 76  
Since 1 July heating degree days 41 133  
Cooling Degree Days 9 2  
Month to date cooling degree days 83 33  
Year to date cooling degree days 4793 3967  
Growing Degree Days 23 (Base 50)    
Moisture  
Dew Point 65 °F    
Average Humidity 72    
Maximum Humidity 81    
Minimum Humidity 62    
Precipitation  
Precipitation T in 0.05 in 2.00 in (1937)
Month to date precipitation 0.46 0.73  
Year to date precipitation 14.05 24.65  
Sea Level Pressure  
Sea Level Pressure 30.00 in    
Wind  
Wind Speed 14 mph (SSE)    
Max Wind Speed 25 mph    
Max Gust Speed 30 mph    
Visibility 10 miles    
Events Rain    
T = Trace of Precipitation, MM = Missing Value Source: NWS Daily Summary

Daily Weather History Graph

Daily Weather History Graph

Search for Another Location

Airport or City:

Trip Planner

Search our weather history database for the weather conditions in past years. The results will help you decide how hot, cold, wet, or windy it might be!

Date:

Astronomy

Dec. 14, 2012 Rise Set
Actual Time 7:10 AM CST 5:40 PM CST
Civil Twilight 6:44 AM CST 6:06 PM CST
Nautical Twilight 6:16 AM CST 6:34 PM CST
Astronomical Twilight 5:47 AM CST 7:03 PM CST
Moon 8:20 AM CST (12/14) 7:28 PM CST (12/14)
Length of Visible Light 11h 21m
Length of Day
10h 30m
Waxing Crescent, 3% of the Moon is Illuminated
Dec 14
Waxing Crescent
Dec 19
First Quarter
Dec 28
Full
Jan 4
Last Quarter
Jan 11
New

Hourly Weather History & Observations

Time (CST) Temp. Dew Point Humidity Pressure Visibility Wind Dir Wind Speed Gust Speed Precip Events Conditions
12:52 AM 69.1 °F 60.1 °F 73% 30.10 in 10.0 mi ESE 11.5 mph - N/A   Overcast
1:52 AM 68.0 °F 60.1 °F 76% 30.09 in 10.0 mi ESE 9.2 mph - N/A   Mostly Cloudy
2:52 AM 68.0 °F 61.0 °F 78% 30.08 in 10.0 mi SE 9.2 mph - N/A   Mostly Cloudy
3:52 AM 68.0 °F 61.0 °F 78% 30.07 in 10.0 mi SE 9.2 mph - N/A   Overcast
4:52 AM 68.0 °F 62.1 °F 81% 30.06 in 10.0 mi ESE 6.9 mph - N/A   Overcast
5:52 AM 68.0 °F 62.1 °F 81% 30.05 in 10.0 mi ESE 8.1 mph - N/A   Overcast
6:52 AM 69.1 °F 62.1 °F 78% 30.07 in 10.0 mi SE 8.1 mph - N/A   Mostly Cloudy
7:52 AM 70.0 °F 63.0 °F 78% 30.08 in 10.0 mi SSE 8.1 mph - N/A   Overcast
8:52 AM 73.4 °F 64.4 °F 73% 30.10 in 10.0 mi SE 8.1 mph - N/A   Overcast
9:52 AM 75.9 °F 64.0 °F 67% 30.09 in 10.0 mi SE 17.3 mph - N/A   Mostly Cloudy
10:52 AM 77.0 °F 64.0 °F 64% 30.09 in 10.0 mi SSE 21.9 mph - N/A   Overcast
10:55 AM 77.0 °F 64.4 °F 65% 30.08 in 10.0 mi SSE 21.9 mph - N/A   Overcast
11:40 AM 77.0 °F 64.4 °F 65% 30.05 in 10.0 mi SE 19.6 mph - N/A   Overcast
11:52 AM 77.0 °F 64.0 °F 64% 30.05 in 10.0 mi SSE 20.7 mph - N/A   Overcast
12:07 PM 77.0 °F 64.4 °F 65% 30.04 in 10.0 mi SSE 17.3 mph 23.0 mph N/A   Overcast
12:52 PM 78.1 °F 64.9 °F 64% 30.00 in 10.0 mi SSE 21.9 mph 28.8 mph N/A   Overcast
1:04 PM 77.0 °F 64.4 °F 65% 29.99 in 10.0 mi SSE 20.7 mph - N/A   Overcast
1:52 PM 77.0 °F 64.9 °F 66% 29.97 in 10.0 mi SSE 18.4 mph 28.8 mph N/A   Overcast
2:52 PM 78.1 °F 66.0 °F 66% 29.94 in 10.0 mi SSE 20.7 mph 26.5 mph N/A   Overcast
3:52 PM 75.9 °F 64.9 °F 69% 29.91 in 10.0 mi SSE 19.6 mph - N/A   Overcast
4:52 PM 75.9 °F 66.0 °F 71% 29.90 in 10.0 mi SSE 20.7 mph - N/A   Overcast
5:52 PM 75.0 °F 66.0 °F 73% 29.89 in 10.0 mi SSE 18.4 mph - N/A   Mostly Cloudy
6:40 PM 73.4 °F 66.2 °F 78% 29.90 in 10.0 mi SSE 16.1 mph 24.2 mph N/A   Scattered Clouds
6:52 PM 73.9 °F 66.9 °F 79% 29.90 in 10.0 mi SSE 15.0 mph - N/A   Partly Cloudy
7:52 PM 73.9 °F 66.9 °F 79% 29.93 in 10.0 mi SSE 12.7 mph - N/A   Mostly Cloudy
8:52 PM 73.9 °F 66.9 °F 79% 29.92 in 10.0 mi SSE 13.8 mph - N/A   Scattered Clouds
8:59 PM 73.4 °F 66.2 °F 78% 29.92 in 10.0 mi SSE 13.8 mph - N/A   Mostly Cloudy
9:52 PM 73.9 °F 66.9 °F 79% 29.93 in 10.0 mi SSE 10.4 mph - N/A   Overcast
10:52 PM 73.9 °F 68.0 °F 82% 29.91 in 10.0 mi SSE 11.5 mph - 0.00 in Rain Light Rain
11:52 PM 75.0 °F 69.1 °F 82% 29.91 in 10.0 mi South 15.0 mph - N/A   Overcast